This is the latest recevied weather packets stored in our database for station/object IU7URP-13. If no packets are shown the sender has not sent any weather packets the latest 10 day(s).
| Time | Temp. | Humidity | Pressure | Rain* | Wind** | Luminosity | Snow |
|---|---|---|---|---|---|---|---|
| 1777830005 | 17.78° C | 51% | 1019.5 hPa | - | - | - | - |
| 1777828804 | 19.44° C | 39% | 1019.3 hPa | - | - | - | - |
| 1777828530 | 19.44° C | 37% | 1019.3 hPa | - | - | - | - |
| 1777827329 | 20° C | 36% | 1019.2 hPa | - | - | - | - |
| 1777826127 | 20.56° C | 32% | 1019.1 hPa | - | - | - | - |
| 1777825363 | 20.56° C | 30% | 1019.2 hPa | - | - | - | - |
| 1777824161 | 20.56° C | 32% | 1019.1 hPa | - | - | - | - |
| 1777823274 | 21.11° C | 32% | 1019.2 hPa | - | - | - | - |
| 1777822073 | 20° C | 34% | 1019.3 hPa | - | - | - | - |
| 1777820871 | 20.56° C | 37% | 1019.4 hPa | - | - | - | - |
| 1777819670 | 20.56° C | 40% | 1019.5 hPa | - | - | - | - |
| 1777818469 | 20.56° C | 36% | 1019.4 hPa | - | - | - | - |
| 1777817671 | 21.11° C | 36% | 1019.5 hPa | - | - | - | - |
| 1777816470 | 21.11° C | 36% | 1019.6 hPa | - | - | - | - |
| 1777815269 | 20° C | 39% | 1019.6 hPa | - | - | - | - |
| 1777814867 | 20.56° C | 41% | 1019.6 hPa | - | - | - | - |
| 1777814481 | 20.56° C | 43% | 1019.6 hPa | - | - | - | - |
| 1777813280 | 20° C | 45% | 1019.7 hPa | - | - | - | - |
| 1777812416 | 20.56° C | 46% | 1019.9 hPa | - | - | - | - |
| 1777811214 | 20° C | 41% | 1020 hPa | - | - | - | - |
| 1777810012 | 19.44° C | 38% | 1020 hPa | - | - | - | - |
| 1777808811 | 20° C | 41% | 1020.1 hPa | - | - | - | - |
| 1777807609 | 20° C | 46% | 1019.7 hPa | - | - | - | - |
| 1777806408 | 20.56° C | 52% | 1019.9 hPa | - | - | - | - |
| 1777805207 | 20° C | 80% | 1020 hPa | - | - | - | - |
* Rain since midnight (hover to see other rain measurements)
** Current wind speed in m/s (hover to see current wind gust speed)